Weather Service Report


476 
ASUS44 KFWD 290215
RWRTX 
NORTH TEXAS HOURLY WEATHER ROUNDUP
NATIONAL WEATHER SERVICE FORT WORTH TX
900 PM CDT TUE JUN 28 2016

NOTE: "FAIR" INDICATES FEW OR NO CLOUDS BELOW 12,000 FEET WITH NO
SIGNIFICANT WEATHER AND/OR OBSTRUCTIONS TO VISIBILITY.

TXZ118-119-290300-
DALLAS/FORT WORTH METROPLEX
  
CITY           SKY/WX    TMP DP  RH WIND       PRES   REMARKS
DFW AIRPORT    CLOUDY    87  62  43 SE8       30.02R                  
DALLAS LOVE    CLOUDY    87  66  49 SE9       30.02R                  
FTW MEACHAM    CLOUDY    81  70  69 SW10      30.03R                  
DAL-EXECUTIVE  CLOUDY    84  66  54 SE7       30.02R                  
FTW-ALLIANCE   MOCLDY    82  67  60 SW10G17   30.03R                  
FTW-NAS-JRB    CLOUDY    81  66  60 S10       30.03R                  
FTW-SPINKS     CLOUDY    74  71  89 CALM      30.04F                  
ARLINGTON      CLOUDY    80  68  66 SW10      30.03R                  
GRAND PRAIRIE  CLOUDY    82  69  63 SW9       30.05R                  
ADDISON        PTCLDY    90  63  40 E8        30.03  HX  90           
MESQUITE       CLOUDY    82  66  57 SE3       30.02R                  
LANCASTER      CLOUDY    84  68  58 CALM      30.03R                  
$$

TXZ091>094-102>105-117-120-121-131>134-290300-
NORTH CENTRAL TEXAS
  
CITY           SKY/WX    TMP DP  RH WIND       PRES   REMARKS
SHRMAN/DENISON CLEAR     86  69  57 SE5       30.05R HX  90           
GAINESVILLE    CLEAR     81  72  73 E3        30.07R                  
BOWIE          PTCLDY    83  72  68 E5        30.05R                  
BRIDGEPORT     PTCLDY    80  73  78 SE6       30.05R                  
DECATUR        CLEAR     83  65  54 E7        30.05R                  
DENTON         CLEAR     84  59  42 NE6       30.02R                  
MCKINNEY       CLEAR     85  66  53 CALM      30.03R                  
GREENVILLE     CLEAR     79  68  69 CALM      30.03R                  
ROCKWALL       CLEAR     83  67  56 S6        30.02R                  
TERRELL        CLOUDY    85  67  54 E3        30.02R                  
WAXAHACHIE     CLOUDY    81  73  76 W7        30.04R                  
CLEBURNE       DRIZZLE   73  73 100 N7        30.04F                  
GRANBURY       LGT RAIN  77  69  77 NW3       30.04F                  
$$

TXZ083>090-098>101-113>116-127>130-139>142-154-155-290300-
WESTERN NORTH TEXAS
  
CITY           SKY/WX    TMP DP  RH WIND       PRES   REMARKS
WICHITA FALLS  PTCLDY    86  67  52 E6        30.04R                  
WF-KICKAPOO    MOCLDY    88  68  51 SE6       30.04R HX  92           
VERNON         CLEAR     85  64  50 CALM      30.07R                  
ABILENE        CLOUDY    76  71  85 CALM      30.09S                  
ABILENE-DYESS  PTCLDY    76  71  84 S2        30.07S                  
BRECKENRIDGE   CLEAR     80  69  69 S5        30.05S HAZE             
GRAHAM         PTCLDY    80  72  75 CALM      30.03R                  
MINERAL WELLS  CLOUDY    78  69  73 SE13G22   30.05R                  
STEPHENVILLE   PTCLDY    74  69  85 CALM      30.09R                  
COMANCHE       CLOUDY    75  70  83 CALM      30.06F                  
BROWNWOOD      PTCLDY    73  72  94 CALM      30.06S                  
COLEMAN        MOCLDY    76  67  76 CALM      30.09R                  
$$

TXZ143>147-156>162-174-175-290300-
CENTRAL TEXAS
  
CITY           SKY/WX    TMP DP  RH WIND       PRES   REMARKS
WACO           MOCLDY    75  68  78 N6        30.02R                  
WACO-TSTC      CLEAR     73  68  83 N5        30.02S                  
WACO-MCGREGOR  CLOUDY    73  70  90 N5        30.02R                  
HILLSBORO      CLOUDY    75  72  88 NW5       30.04R                  
CORSICANA      CLOUDY    81  72  74 W5        30.03R                  
MEXIA          MOCLDY    76  74  93 W6        30.01R                  
CAMERON        CLOUDY    75  72  89 CALM      29.99F                  
TEMPLE         CLOUDY    72  70  93 CALM      30.01F                  
KILLEEN        MOCLDY    71  70  96 SE6       30.00F                  
KILLEEN-SKYLRK CLOUDY    72  71  97 CALM      30.01F                  
FORT HOOD      CLOUDY    70  69  96 W1        29.99F                  
GATESVILLE     CLOUDY    73  73 100 N3        30.04R                  
HAMILTON       CLOUDY    73  73 100 NW6       30.05S                  
LAMPASAS       LGT RAIN  72  71  97 W6        30.02S                  
$$

TXZ095>097-106>112-122>126-135>138-148>153-164>167-290300-
EAST TEXAS
  
CITY           SKY/WX    TMP DP  RH WIND       PRES   REMARKS
PARIS          CLEAR     82  59  44 E3        30.04R                  
SULPHUR SPRNGS CLEAR     83  67  58 CALM      30.05R                  
MOUNT PLEASANT CLEAR     83  64  52 CALM      30.04R                  
GILMER         CLEAR     81  70  68 N3        30.01R                  
MINEOLA        CLEAR     81  72  74 CALM      30.03R                  
TYLER          CLEAR     85  69  58 N3        30.01R                  
LONGVIEW       PTCLDY    81  71  71 NE5       29.99R                  
MARSHALL       CLEAR     77  72  84 CALM      30.02R                  
ATHENS         PTCLDY    77  72  83 CALM      30.00R                  
PALESTINE      MOCLDY    77  76  96 CALM      30.02R                  
JACKSONVILLE   CLOUDY    81  75  82 S3        30.03R                  
HENDERSON      CLOUDY    83  71  65 NE3       30.01R                  
CENTER         FAIR     N/A N/A N/A MISG      29.99                   
NACOGDOCHES    PTCLDY    79  72  78 CALM      29.99R                  
LUFKIN         CLOUDY    75  73  93 W3        29.99R                  
$$

SUPPLEMENTAL OBSERVATIONS (CENTRAL)
  
CITY           SKY/WX    TMP DP  RH WIND       PRES   REMARKS
CADDO GRASSLND   N/A     81  64  57 SE2         N/A                   
PAT MAYSE LAKE   N/A     82  64  54 E5          N/A                   
GREENVILLE       N/A     82  64  54 E5          N/A                   
LAKE LIMESTONE   N/A     75  73  94 NE1         N/A                   
MCGREGOR         N/A     72  68  88 CALM        N/A                   
TEMPLE           N/A     73  70  88 W2          N/A                   
$$

SUPPLEMENTAL OBSERVATIONS (WEST)
  
CITY           SKY/WX    TMP DP  RH WIND       PRES   REMARKS
MILLERS CREEK    N/A     81  68  65 SW3         N/A                   
POSSUM KINGDOM   N/A     81  68  65 SW3         N/A                   
LBJ GRASSLAND    N/A     84  68  58 E5          N/A                   
GRANBURY         N/A     75  68  78 NW3G16      N/A                   
COMANCHE         N/A     75  68  78 SW2         N/A                   
HAMBY            N/A     75  68  78 S1          N/A                   
IVIE RESERVOIR   N/A     77  64  65 E2G10       N/A                   
COLORADO BEND    N/A     72  66  83 W3          N/A                   
$$

SUPPLEMENTAL OBSERVATIONS (EAST)
  
CITY           SKY/WX    TMP DP  RH WIND       PRES   REMARKS
CLARKSVILLE      N/A     82  64  54 E2          N/A                   
TEXARKANA        N/A     79  70  73 CALM        N/A                   
LINDEN           N/A     81  72  74 CALM        N/A                   
CADDO LAKE       N/A     77  73  88 CALM        N/A                   
GILMER           N/A     82  70  65 NE2         N/A                   
HENDERSON        N/A     82  72  69 E3          N/A                   
LUFKIN           N/A     75  72  88 MISG        N/A                   
N SABINE NF      N/A     79  75  89 MISG        N/A                   
S SABINE NF      N/A     81  73  78 N2          N/A                   
$$

SUPPLEMENTAL OBSERVATIONS ARE A COLLECTION OF AUTOMATED INSTRUMENTS
THAT ARE MAINTAINED BY A VARIETY OF FEDERAL AND STATE AGENCIES. 
CERTAIN ELEMENTS...SUCH AS HUMIDITY VALUES AND SUSTAINED WIND 
SPEEDS...MAY BE APPROXIMATED.

  

Return to Home page


Western Regional Climate Center, wrcc@dri.edu